Total_Precipitation_Accumulation
0.00 0.00 0.01 0.01 0.00 0.00 0.00 0.00 0.00 0.00 0.00 0.00 0.00 0.00 0.00 0.00 0.00 0.00 0.00 0.00 0.00 0.00 0.00 0.00 0.00 0.00 0.00 0.00 0.00 0.00 0.00 0.00 0.01 0.02 0.03 0.02 0.01 0.00 0.00 0.00 0.00 0.00 0.00 0.00
0.01 0.00 0.00 0.00 0.00 0.00 0.00 0.00 0.00 0.00 0.00 0.00 0.00 0.00 0.00 0.00 0.00 0.00 0.00 0.00 0.00 0.00 0.00 0.00 0.00 0.00 0.00 0.00 0.00 0.00 0.00 0.00 0.00 0.01 0.01 0.00 0.00 0.00 0.00 0.00 0.00 0.00 0.00 0.00
0.02 0.00 0.00 0.00 0.00 0.01 0.01 0.00 0.00 0.00 0.00 0.00 0.00 0.00 0.00 0.00 0.00 0.00 0.00 0.00 0.00 0.00 0.00 0.00 0.00 0.00 0.00 0.00 0.00 0.00 0.00 0.00 0.00 0.00 0.01 0.01 0.02 0.01 0.01 0.00 0.00 0.00 0.00 0.00
0.03 0.00 0.00 0.00 0.00 0.04 0.01 0.00 0.00 0.01 0.04 0.03 0.09 0.05 0.00 0.00 0.00 0.00 0.00 0.00 0.00 0.00 0.00 0.00 0.00 0.00 0.00 0.00 0.00 0.00 0.00 0.00 0.00 0.00 0.01 0.01 0.01 0.01 0.00 0.00 0.00 0.00 0.00 0.00
0.02 0.00 0.00 0.00 0.00 0.03 0.01 0.02 0.01 0.05 0.11 0.15 0.13 0.09 0.01 0.00 0.00 0.00 0.00 0.00 0.00 0.00 0.00 0.00 0.00 0.00 0.00 0.00 0.00 0.00 0.00 0.00 0.00 0.00 0.00 0.01 0.01 0.01 0.01 0.00 0.00 0.00 0.00 0.00
0.01 0.00 0.00 0.00 0.00 0.03 0.02 0.02 0.03 0.05 0.10 0.29 0.07 0.09 0.04 0.00 0.00 0.00 0.00 0.00 0.00 0.00 0.00 0.00 0.00 0.00 0.00 0.00 0.00 0.00 0.00 0.00 0.00 0.00 0.00 0.00 0.01 0.02 0.02 0.01 0.01 0.01 0.00 0.00
0.03 0.00 0.00 0.02 0.06 0.04 0.08 0.12 0.24 0.28 0.20 0.21 0.01 0.05 0.03 0.00 0.00 0.00 0.00 0.00 0.00 0.00 0.00 0.00 0.00 0.00 0.00 0.00 0.00 0.00 0.00 0.00 0.00 0.00 0.00 0.00 0.00 0.00 0.00 0.00 0.00 0.00 0.00 0.01
0.30 0.12 0.00 0.01 0.06 0.03 0.04 0.17 0.38 0.48 0.20 0.09 0.03 0.03 0.00 0.00 0.00 0.00 0.00 0.00 0.00 0.00 0.00 0.00 0.00 0.00 0.00 0.00 0.00 0.00 0.00 0.00 0.00 0.00 0.00 0.00 0.01 0.01 0.01 0.00 0.01 0.01 0.03 0.04
0.81 0.52 0.08 0.01 0.01 0.06 0.05 0.20 0.11 0.32 0.28 0.48 0.15 0.00 0.00 0.00 0.00 0.00 0.00 0.00 0.00 0.00 0.00 0.00 0.00 0.00 0.00 0.00 0.00 0.00 0.00 0.00 0.00 0.01 0.03 0.03 0.03 0.02 0.02 0.02 0.03 0.03 0.05 0.07
1.39 1.00 0.26 0.11 0.10 0.14 0.23 0.30 0.38 0.54 1.24 1.13 0.39 0.03 0.00 0.00 0.00 0.00 0.00 0.00 0.00 0.00 0.00 0.00 0.00 0.00 0.00 0.00 0.00 0.00 0.00 0.00 0.00 0.02 0.04 0.05 0.07 0.09 0.09 0.06 0.03 0.03 0.05 0.05
0.72 0.93 0.41 0.16 0.24 0.35 0.39 0.64 0.74 1.13 1.46 1.39 0.89 0.48 0.14 0.02 0.00 0.01 0.00 0.00 0.00 0.00 0.00 0.00 0.00 0.00 0.00 0.00 0.00 0.00 0.00 0.00 0.00 0.02 0.06 0.12 0.19 0.25 0.24 0.17 0.12 0.09 0.09 0.08
0.74 1.14 0.73 0.24 0.16 0.19 0.35 0.65 0.86 1.28 1.30 1.10 1.07 0.54 0.18 0.11 0.05 0.03 0.01 0.01 0.01 0.00 0.00 0.00 0.00 0.00 0.00 0.02 0.03 0.04 0.05 0.06 0.10 0.16 0.23 0.28 0.30 0.34 0.35 0.35 0.32 0.27 0.19 0.10
0.60 1.14 1.14 0.62 0.56 0.62 0.61 0.59 0.86 1.30 1.61 1.19 1.21 0.77 0.22 0.17 0.22 0.25 0.25 0.19 0.12 0.10 0.09 0.06 0.03 0.04 0.05 0.05 0.11 0.16 0.19 0.26 0.34 0.41 0.49 0.54 0.54 0.48 0.43 0.46 0.55 0.55 0.35 0.23
0.52 0.75 0.48 0.39 0.31 0.50 0.66 0.64 0.74 1.08 1.42 1.09 0.88 0.66 0.40 0.38 0.32 0.31 0.35 0.34 0.36 0.34 0.28 0.25 0.18 0.14 0.11 0.06 0.03 0.09 0.21 0.21 0.23 0.31 0.47 0.59 0.64 0.65 0.58 0.52 0.52 0.54 0.37 0.27
0.49 0.64 0.26 0.19 0.14 0.12 0.13 0.13 0.21 0.44 0.61 0.77 0.58 0.51 0.47 0.43 0.42 0.45 0.47 0.50 0.46 0.34 0.37 0.35 0.32 0.28 0.21 0.15 0.10 0.07 0.12 0.29 0.47 0.51 0.44 0.44 0.43 0.43 0.45 0.49 0.47 0.43 0.34 0.26
0.31 0.43 0.21 0.20 0.08 0.12 0.18 0.10 0.08 0.10 0.13 0.22 0.18 0.16 0.14 0.26 0.28 0.27 0.24 0.34 0.58 0.44 0.23 0.17 0.25 0.43 0.32 0.14 0.10 0.11 0.13 0.21 0.32 0.58 0.82 0.85 0.83 0.64 0.56 0.49 0.41 0.40 0.40 0.38
0.35 0.39 0.38 0.30 0.10 0.21 0.36 0.08 0.02 0.02 0.02 0.06 0.16 0.09 0.09 0.13 0.08 0.04 0.05 0.08 0.09 0.09 0.07 0.04 0.03 0.06 0.07 0.05 0.05 0.08 0.13 0.15 0.20 0.27 0.37 0.58 0.85 0.82 0.69 0.69 0.56 0.45 0.39 0.37
0.50 0.38 0.37 0.26 0.21 0.39 0.10 0.02 0.02 0.04 0.05 0.06 0.07 0.06 0.19 0.15 0.08 0.04 0.02 0.02 0.00 0.00 0.00 0.00 0.00 0.00 0.01 0.03 0.03 0.03 0.04 0.05 0.06 0.12 0.21 0.29 0.31 0.37 0.39 0.42 0.48 0.47 0.39 0.42
0.12 0.35 0.54 0.31 0.21 0.12 0.02 0.00 0.01 0.02 0.02 0.01 0.02 0.08 0.08 0.03 0.04 0.02 0.04 0.03 0.01 0.01 0.01 0.00 0.01 0.02 0.03 0.08 0.06 0.01 0.00 0.01 0.02 0.03 0.06 0.08 0.10 0.13 0.17 0.24 0.32 0.42 0.54 0.54
0.14 0.31 0.71 0.59 0.41 0.16 0.05 0.03 0.00 0.03 0.05 0.01 0.01 0.03 0.05 0.05 0.07 0.02 0.02 0.06 0.03 0.03 0.02 0.02 0.02 0.04 0.03 0.06 0.17 0.14 0.02 0.00 0.00 0.01 0.01 0.03 0.04 0.08 0.14 0.19 0.24 0.35 0.42 0.47
0.29 0.46 0.78 0.76 0.89 0.52 0.20 0.03 0.04 0.22 0.22 0.15 0.13 0.12 0.07 0.07 0.05 0.03 0.03 0.04 0.04 0.05 0.03 0.03 0.02 0.02 0.02 0.02 0.06 0.15 0.10 0.02 0.01 0.01 0.02 0.04 0.06 0.09 0.20 0.38 0.52 0.62 0.63 0.61
0.49 0.49 0.62 0.53 0.76 0.87 0.30 0.13 0.21 0.25 0.13 0.09 0.06 0.13 0.17 0.13 0.09 0.10 0.06 0.02 0.03 0.12 0.19 0.20 0.11 0.06 0.04 0.04 0.03 0.04 0.04 0.02 0.02 0.00 0.01 0.04 0.12 0.25 0.40 0.54 0.65 0.64 0.60 0.58
0.29 0.22 0.28 0.39 0.65 0.56 0.53 0.45 0.24 0.17 0.21 0.15 0.06 0.16 0.65 0.49 0.33 0.21 0.26 0.16 0.17 0.20 0.29 0.25 0.18 0.23 0.15 0.05 0.04 0.03 0.03 0.04 0.05 0.05 0.12 0.24 0.32 0.47 0.60 0.58 0.57 0.52 0.47 0.44
0.01 0.01 0.01 0.03 0.12 0.16 0.41 0.32 0.25 0.17 0.19 0.17 0.07 0.07 0.32 0.71 0.77 0.94 0.76 0.73 0.45 0.27 0.25 0.25 0.15 0.18 0.18 0.22 0.12 0.07 0.05 0.07 0.12 0.18 0.26 0.37 0.49 0.58 0.60 0.60 0.48 0.37 0.35 0.32
0.00 0.00 0.00 0.00 0.01 0.00 0.03 0.02 0.02 0.06 0.13 0.25 0.12 0.13 0.21 0.45 0.56 0.90 0.85 0.70 0.85 0.49 0.21 0.30 0.19 0.17 0.13 0.24 0.19 0.11 0.15 0.13 0.15 0.19 0.29 0.33 0.34 0.34 0.35 0.33 0.31 0.28 0.22 0.17
0.00 0.01 0.01 0.00 0.00 0.00 0.00 0.00 0.00 0.00 0.03 0.19 0.38 0.29 0.35 0.42 0.30 0.42 0.24 0.43 0.38 0.52 0.37 0.34 0.25 0.17 0.13 0.07 0.10 0.14 0.18 0.18 0.19 0.19 0.19 0.19 0.23 0.25 0.23 0.24 0.31 0.34 0.30 0.29